User: anonymous   Login
Location: Boda
(47.1872°N, 9.5454°E)
Time: 01:15:13
(UTC+00:00)
Language:

Resurs 1-4 Rocket - Orbit

View from above orbital plane
View from above orbital plane
View from above satellite
View from above satellite

Ground track
Ground track

The orbit data is extracted from the following two-line orbital elements,

1 25400U 98043G   21217.56752197 -.00000035  00000-0  36823-5 0  9996
2 25400  98.6406 152.6950 0009371 202.6536 157.4231 14.25479909200014
Epoch (UTC): 05 August 2021 13:37:13
Eccentricity: 0.0009371
inclination: 98.6406°
perigee height: 800 km
apogee height: 813 km
right ascension of ascending node: 152.6950°
argument of perigee: 202.6536°
revolutions per day: 14.25479909
mean anomaly at epoch: 157.4231°
orbit number at epoch: 20001

The dashed part of the orbit path shows where the satellite is in the earth's shadow,  

DLR